This is the latest recevied weather packets stored in our database for station/object N2GWK. If no packets are shown the sender has not sent any weather packets the latest 10 day(s).
| Time | Temp. | Humidity | Pressure | Rain* | Wind** | Luminosity | Snow |
|---|---|---|---|---|---|---|---|
| 1777350319 | 17.22° C | 99% | 1010.6 hPa | 0.25 mm | - | - | - |
| 1777339537 | 25° C | 69% | 1009.8 hPa | 0 mm | - | - | - |
| 1777338933 | 25° C | 69% | 1009.9 hPa | 0 mm | - | - | - |
| 1777335325 | 25° C | 68% | 1009.6 hPa | 0 mm | - | - | - |
| 1777329917 | 25.56° C | 66% | 1010.5 hPa | 0 mm | - | - | - |
| 1777322131 | 26.67° C | 65% | 1011.9 hPa | 0 mm | - | - | - |
| 1777320928 | 26.11° C | 67% | 1012.7 hPa | 0 mm | - | - | - |
| 1777319121 | 25.56° C | 68% | 1013.8 hPa | 0 mm | - | - | - |
| 1777318525 | 25° C | 70% | 1013.4 hPa | 0 mm | - | - | - |
| 1777316716 | 25° C | 71% | 1013.8 hPa | 0 mm | - | - | - |
| 1777316126 | 25° C | 70% | 1013.9 hPa | 0 mm | - | - | - |
| 1777310729 | 25.56° C | 65% | 1014.4 hPa | 0 mm | - | - | - |
| 1777293316 | 14.44° C | 97% | 1015.9 hPa | 0 mm | - | - | - |
| 1777289123 | 11.11° C | 99% | 1016.2 hPa | 0 mm | - | - | - |
| 1777287327 | 10.56° C | 99% | 1016.2 hPa | 0 mm | - | - | - |
| 1777280121 | 10.56° C | 99% | 1016.6 hPa | 0 mm | - | - | - |
| 1777276526 | 11.67° C | 97% | 1016.3 hPa | 0 mm | - | - | - |
| 1777261519 | 13.89° C | 88% | 1016.7 hPa | 0 mm | - | - | - |
| 1777260320 | 14.44° C | 85% | 1016.4 hPa | 0 mm | - | - | - |
| 1777257951 | 15° C | 84% | 1016.2 hPa | 0 mm | - | - | - |
| 1777256726 | 15° C | 84% | 1016.3 hPa | 0 mm | - | - | - |
| 1777247727 | 23.89° C | 55% | 1014.9 hPa | 0 mm | - | - | - |
| 1777244717 | 25° C | 50% | 1014.9 hPa | 0 mm | - | - | - |
| 1777243538 | 26.11° C | 51% | 1015 hPa | 0 mm | - | - | - |
| 1777239322 | 25° C | 54% | 1015.4 hPa | 0 mm | - | - | - |
* Rain latest hour (hover to see other rain measurements)
** Current wind speed in m/s (hover to see current wind gust speed)